EW6791 Weather Reports


Display with metric or nautical units.
time (UTC)temp
F
wind
direction
speed
MPH
gust
MPH
rain 1hr
in
rain 24hr
in
rain mn
in
humidity
%
barometer
mb
20260510020055 50 337 0.0 1.0 0.00 0.00 0.00 52 1005.7
20260510014552 50 305 0.0 4.0 0.00 0.00 0.00 51 1005.4
20260510013053 50 299 0.0 3.0 0.00 0.00 0.00 51 1004.9
20260510011547 50 338 1.0 6.0 0.00 0.00 0.00 51 1004.5
20260510010046 51 277 1.0 6.0 0.00 0.00 0.00 51 1004.2
20260510004546 51 277 5.0 8.0 0.00 0.00 0.00 50 1003.9
20260510003054 51 285 4.0 7.0 0.00 0.00 0.00 51 1003.7
20260510001546 52 271 4.0 8.0 0.00 0.00 0.00 50 1003.3
20260510000044 52 297 3.0 7.0 0.00 0.00 0.00 50 1002.9
20260509234559 52 278 3.0 8.0 0.00 0.00 0.00 49 1002.4
20260509233050 53 265 3.0 11.0 0.00 0.00 0.00 49 1002.0
20260509231601 53 284 2.0 6.0 0.00 0.00 0.00 49 1001.7
20260509230041 54 296 1.0 6.0 0.00 0.00 0.00 50 1001.5
20260509224540 53 252 1.0 7.0 0.00 0.00 0.00 51 1001.3
20260509223040 55 359 2.0 11.0 0.00 0.00 0.00 49 1001.0
20260509221540 57 323 1.0 8.0 0.00 0.00 0.00 47 1000.5
20260509220040 58 330 1.0 5.0 0.00 0.00 0.00 47 1000.1
20260509214538 59 177 1.0 12.0 0.00 0.00 0.00 44 1000.1
20260509213037 62 251 6.0 11.0 0.00 0.00 0.00 41 999.8
20260509211536 61 179 4.0 13.0 0.00 0.00 0.00 42 999.6
20260509210038 60 195 2.0 12.0 0.00 0.00 0.00 44 999.5
20260509204535 59 253 2.0 12.0 0.00 0.00 0.00 48 999.3
20260509203040 62 209 5.0 15.0 0.00 0.00 0.00 43 999.2
20260509201533 62 207 3.0 18.0 0.00 0.00 0.00 44 998.9
20260509200034 62 201 6.0 16.0 0.00 0.00 0.00 43 998.6
20260509194532 62 160 4.0 11.0 0.00 0.00 0.00 43 998.6
20260509193031 61 210 3.0 11.0 0.00 0.00 0.00 45 998.7
20260509191530 60 221 3.0 14.0 0.00 0.00 0.00 46 998.7
20260509190034 60 214 5.0 15.0 0.00 0.00 0.00 46 998.7
20260509184539 60 207 5.0 15.0 0.00 0.00 0.00 45 998.5
20260509183034 60 150 4.0 14.0 0.00 0.00 0.00 45 998.3
20260509181528 59 199 6.0 15.0 0.00 0.00 0.00 45 998.5
20260509180028 60 192 3.0 11.0 0.00 0.00 0.00 49 998.4
20260509174527 61 171 4.0 14.0 0.00 0.00 0.00 48 998.2
20260509173029 62 205 3.0 13.0 0.00 0.00 0.00 49 998.1
20260509171533 65 138 4.0 11.0 0.00 0.00 0.00 42 997.6
20260509170023 64 157 4.0 12.0 0.00 0.00 0.00 45 997.9
20260509164521 64 253 3.0 10.0 0.00 0.00 0.00 45 998.1
20260509163034 63 274 4.0 11.0 0.00 0.00 0.00 45 997.7
20260509161523 63 141 4.0 13.0 0.00 0.00 0.00 45 997.5
20260509160017 63 206 4.0 14.0 0.00 0.00 0.00 44 997.6
20260509154514 63 198 4.0 11.0 0.00 0.00 0.00 43 997.5
20260509153020 62 191 4.0 11.0 0.00 0.00 0.00 44 997.6
20260509151508 61 130 2.0 8.0 0.00 0.00 0.00 46 997.8
20260509150005 60 198 1.0 9.0 0.00 0.00 0.00 47 997.8
20260509144502 60 139 1.0 7.0 0.00 0.00 0.00 50 997.9
20260509143106 59 115 0.0 3.0 0.00 0.00 0.00 52 998.2
20260509141556 58 53 0.0 6.0 0.00 0.00 0.00 54 998.6
20260509140058 56 51 0.0 1.0 0.00 0.00 0.00 58 999.0
20260509134547 53 53 0.0 2.0 0.00 0.00 0.00 62 999.4
20260509133047 51 63 0.0 1.0 0.00 0.00 0.00 65 999.9
20260509131539 49 63 0.0 1.0 0.00 0.00 0.00 63 1000.0
20260509130038 49 59 0.0 3.0 0.00 0.00 0.00 59 1000.6
20260509124546 50 1 0.0 4.0 0.00 0.00 0.00 60 1000.9
20260509123039 50 357 0.0 1.0 0.00 0.00 0.00 60 1001.0
20260509121550 49 342 0.0 1.0 0.00 0.00 0.00 59 1000.7
20260509120033 49 48 0.0 0.0 0.00 0.00 0.00 55 1000.5
20260509114549 49 72 0.0 1.0 0.00 0.00 0.00 52 1001.1
20260509113031 50 55 0.0 0.0 0.00 0.00 0.00 51 1001.4
20260509111530 50 16 0.0 2.0 0.00 0.00 0.00 51 1001.5
20260509110028 49 356 3.0 5.0 0.00 0.00 0.00 50 1001.4
20260509104526 48 301 0.0 2.0 0.00 0.00 0.00 50 1001.2
20260509103021 46 203 0.0 0.0 0.00 0.00 0.00 51 1001.0
20260509101518 46 120 0.0 0.0 0.00 0.00 0.00 52 1001.5
20260509100015 45 120 0.0 0.0 0.00 0.00 0.00 53 1001.8
20260509094517 45 120 0.0 0.0 0.00 0.00 0.00 54 1002.0
20260509093013 45 120 0.0 1.0 0.00 0.00 0.00 55 1002.1
20260509091511 45 179 0.0 1.0 0.00 0.00 0.00 56 1002.3
20260509090031 45 191 0.0 1.0 0.00 0.00 0.00 58 1002.3
20260509084510 45 190 0.0 1.0 0.00 0.00 0.00 60 1002.4
20260509083018 46 158 0.0 3.0 0.00 0.00 0.00 62 1002.4
20260509081507 46 128 0.0 1.0 0.00 0.00 0.00 66 1002.5
20260509080010 45 109 0.0 1.0 0.00 0.00 0.00 68 1002.6
20260509074511 45 108 0.0 0.0 0.00 0.00 0.00 67 1002.6
20260509073006 45 108 0.0 0.0 0.00 0.00 0.00 67 1002.7
20260509071502 46 108 0.0 0.0 0.00 0.00 0.00 67 1002.8
20260509070001 46 60 0.0 0.0 0.00 0.00 0.00 67 1002.9
20260509064559 46 20 0.0 0.0 0.00 0.00 0.00 65 1003.2
20260509063120 46 53 0.0 0.0 0.00 0.00 0.00 63 1003.3
20260509061559 46 53 0.0 0.0 0.00 0.00 0.00 61 1003.5
20260509060056 47 88 0.0 0.0 0.00 0.00 0.00 60 1003.7
20260509054554 47 44 0.0 0.0 0.00 0.00 0.00 60 1003.9
20260509053050 47 102 0.0 0.0 0.00 0.00 0.00 58 1004.0
20260509051552 47 125 0.0 0.0 0.00 0.00 0.00 56 1004.0
20260509050057 46 147 0.0 0.0 0.00 0.00 0.00 56 1004.1
20260509044543 45 147 0.0 0.0 0.00 0.00 0.00 55 1004.3
20260509043046 45 147 0.0 0.0 0.00 0.00 0.00 53 1004.3
20260509041540 44 147 0.0 0.0 0.00 0.00 0.00 52 1004.4
20260509040039 45 147 0.0 0.0 0.00 0.00 0.00 53 1004.5
20260509034536 46 147 0.0 0.0 0.00 0.00 0.00 51 1004.6
20260509033041 46 154 0.0 0.0 0.00 0.00 0.00 51 1004.7
20260509031535 46 185 0.0 0.0 0.00 0.00 0.00 50 1004.7
20260509030035 47 185 0.0 0.0 0.00 0.00 0.00 48 1004.9
20260509024539 48 185 0.0 0.0 0.00 0.00 0.00 46 1004.9
20260509023035 49 185 0.0 0.0 0.00 0.00 0.00 44 1004.9
20260509021533 50 184 0.0 0.0 0.00 0.00 0.00 41 1005.0